KB1QVF Weather Reports


time (UTC)temp
F
wind
direction
speed
knots
gust
knots
rain 1hr
in
rain 24hr
in
rain mn
in
humidity
%
barometer
mb
20260507021132 57 218 7.8 9.6 0.00 0.12 0.12 98 1009.0
20260507020631 57 53 4.3 9.6 0.00 0.12 0.12 98 1008.9
20260507020126 56 122 11.3 14.8 0.00 0.12 0.12 98 1009.3
20260507015625 56 353 1.7 7.8 0.00 0.12 0.12 98 1009.3
20260507015122 56 158 7.8 11.3 0.00 0.12 0.12 98 1009.0
20260507014619 56 76 3.5 7.0 0.00 0.12 0.12 98 1009.0
20260507014114 56 29 2.6 5.2 0.00 0.12 0.12 98 1009.0
20260507013611 56 101 1.7 6.1 0.00 0.12 0.12 98 1008.9
20260507013108 56 7 2.6 3.5 0.00 0.12 0.12 98 1008.7
20260507012606 56 73 2.6 11.3 0.00 0.12 0.12 98 1009.0
20260507012102 56 186 4.3 5.2 0.00 0.12 0.12 98 1009.1
20260507011600 56 57 1.7 5.2 0.00 0.12 0.12 98 1009.1
20260507011056 56 87 1.7 5.2 0.00 0.12 0.12 98 1009.1
20260507010556 56 204 5.2 6.1 0.00 0.12 0.12 98 1009.2
20260507010052 56 158 2.6 7.8 0.00 0.12 0.12 98 1009.4
20260507005550 56 145 3.5 7.0 0.00 0.12 0.12 98 1009.4
20260507005046 56 357 1.7 7.0 0.00 0.12 0.12 98 1009.4
20260507004543 56 30 3.5 9.6 0.00 0.12 0.12 98 1009.4
20260507004040 56 133 4.3 8.7 0.00 0.12 0.12 98 1009.3
20260507003536 56 258 7.0 9.6 0.00 0.12 0.12 98 1009.4
20260507003031 56 184 4.3 7.8 0.00 0.12 0.12 98 1009.5
20260507002528 56 300 3.5 11.3 0.00 0.12 0.12 98 1009.5
20260507002025 56 127 5.2 7.8 0.00 0.12 0.12 98 1009.2
20260507001521 56 47 3.5 12.2 0.00 0.12 0.12 98 1009.2
20260507001019 56 328 3.5 11.3 0.00 0.12 0.12 98 1009.2
20260507000514 56 146 3.5 11.3 0.00 0.12 0.12 97 1009.1
20260507000010 56 19 3.5 7.8 0.00 0.12 0.12 97 1009.1
20260506235508 56 15 1.7 12.2 0.00 0.12 0.12 97 1009.2
20260506235003 56 174 6.1 11.3 0.00 0.12 0.12 97 1009.3
20260506234501 56 210 7.8 13.9 0.00 0.12 0.12 97 1009.0
20260506233958 56 45 2.6 8.7 0.00 0.12 0.12 97 1009.0
20260506233455 56 32 4.3 9.6 0.00 0.12 0.12 97 1009.2
20260506232951 56 343 2.6 11.3 0.00 0.12 0.12 97 1009.0
20260506232448 56 283 3.5 6.1 0.00 0.12 0.12 97 1008.8
20260506231943 56 231 3.5 7.0 0.00 0.12 0.12 97 1009.0
20260506231441 56 49 3.5 7.0 0.05 0.12 0.12 97 1008.9
20260506230938 56 168 9.6 11.3 0.05 0.12 0.12 97 1009.0
20260506230434 56 49 0.9 3.5 0.00 0.11 0.11 96 1009.0
20260506225931 56 162 7.0 9.6 0.00 0.11 0.11 96 1009.0
20260506225428 56 173 7.8 11.3 0.00 0.11 0.11 96 1009.0
20260506224925 56 201 7.8 11.3 0.00 0.11 0.11 96 1009.0
20260506224422 56 190 9.6 11.3 0.00 0.11 0.11 96 1008.8
20260506223919 57 239 5.2 9.6 0.00 0.11 0.11 96 1008.8
20260506223414 57 111 4.3 7.8 0.00 0.11 0.11 96 1009.0
20260506222912 57 148 3.5 9.6 0.07 0.11 0.11 96 1008.9
20260506222408 57 176 3.5 5.2 0.12 0.11 0.11 96 1008.9
20260506221906 57 342 5.2 7.8 0.05 0.10 0.10 96 1009.0
20260506221402 57 150 7.8 11.3 0.00 0.09 0.09 96 1008.8
20260506220900 57 165 12.2 15.6 0.00 0.09 0.09 96 1008.8
20260506220355 57 24 2.6 7.0 0.00 0.09 0.09 96 1008.5
20260506215852 57 99 5.2 9.6 0.00 0.09 0.09 96 1009.0
20260506215348 57 335 3.5 6.1 0.07 0.09 0.09 96 1009.2
20260506214844 57 134 3.5 9.6 0.00 0.08 0.08 96 1009.0
20260506214341 57 122 8.7 13.0 0.05 0.08 0.08 95 1009.2
20260506213839 57 352 3.5 14.8 0.05 0.08 0.08 95 1009.0
20260506213336 57 95 2.6 5.2 0.00 0.07 0.07 95 1009.4
20260506212833 57 44 3.5 9.6 0.00 0.07 0.07 95 1009.3
20260506212329 57 216 4.3 6.1 0.07 0.07 0.07 95 1009.5
20260506211824 57 178 5.2 8.7 0.00 0.06 0.06 95 1009.3
20260506211320 57 178 7.0 13.9 0.00 0.06 0.06 94 1009.6
20260506210818 57 91 1.7 13.0 0.00 0.06 0.06 94 1009.7
20260506210315 57 140 1.7 9.6 0.00 0.06 0.06 94 1009.6
20260506205812 57 170 4.3 9.6 0.00 0.06 0.06 94 1009.5
20260506205308 58 178 4.3 6.1 0.00 0.06 0.06 94 1009.9
20260506204804 58 175 7.8 11.3 0.00 0.06 0.06 94 1009.7
20260506204302 58 164 7.8 13.9 0.00 0.06 0.06 94 1009.9
20260506203800 58 256 3.5 3.5 0.00 0.06 0.06 94 1009.9
20260506203257 58 173 4.3 12.2 0.00 0.06 0.06 94 1009.6
20260506202754 57 116 3.5 18.2 0.00 0.06 0.06 94 1009.7
20260506202251 58 228 3.5 13.0 0.00 0.06 0.06 94 1010.0
20260506201747 58 154 5.2 12.2 0.00 0.06 0.06 94 1009.7
20260506201244 58 177 5.2 7.8 0.00 0.06 0.06 94 1009.8
20260506200741 58 167 11.3 13.0 0.00 0.06 0.06 94 1009.8
20260506200237 58 77 4.3 13.9 0.00 0.06 0.06 94 1010.1
20260506195733 58 124 3.5 12.2 0.00 0.06 0.06 94 1010.1
20260506195230 58 354 1.7 13.9 0.00 0.06 0.06 93 1010.0
20260506194728 58 307 2.6 8.7 0.00 0.06 0.06 93 1010.1
20260506194224 58 116 7.8 13.9 0.00 0.06 0.06 93 1010.2
20260506193722 58 169 7.8 9.6 0.05 0.06 0.06 93 1010.0
20260506193218 58 17 0.9 13.0 0.12 0.06 0.06 93 1010.1
20260506192716 58 107 8.7 12.2 0.07 0.05 0.05 92 1010.2
20260506192212 58 126 3.5 8.7 0.12 0.04 0.04 91 1010.3
20260506191709 58 191 3.5 11.3 0.07 0.03 0.03 90 1010.2
20260506191205 59 162 1.7 12.2 0.05 0.02 0.02 89 1010.4
20260506190703 59 167 7.0 9.6 0.05 0.02 0.02 89 1010.2
20260506190159 59 140 3.5 6.1 0.00 0.01 0.01 88 1010.2
20260506185656 59 222 7.0 12.2 0.07 0.01 0.01 87 1010.3
20260506185152 59 219 7.0 9.6 0.07 0.01 0.01 87 1010.4
20260506184650 59 348 5.2 15.6 0.00 0.00 0.00 85 1010.7
20260506184147 60 188 7.0 15.6 0.00 0.00 0.00 83 1010.7
20260506183643 60 237 7.8 19.1 0.00 0.00 0.00 81 1010.7
20260506183139 61 191 9.6 15.6 0.00 0.00 0.00 79 1010.8
20260506182637 62 212 9.6 16.5 0.00 0.00 0.00 76 1010.7
20260506182134 62 164 6.1 15.6 0.00 0.00 0.00 76 1010.8
20260506181632 62 175 7.0 11.3 0.00 0.00 0.00 74 1010.8
20260506181129 63 359 2.6 7.0 0.00 0.00 0.00 74 1011.0
20260506180625 63 104 5.2 16.5 0.00 0.00 0.00 73 1011.0
20260506180122 63 72 3.5 11.3 0.00 0.00 0.00 73 1011.2
20260506175618 63 250 6.1 15.6 0.00 0.00 0.00 73 1010.9
20260506175114 64 253 4.3 13.0 0.00 0.00 0.00 72 1011.0
20260506174613 64 202 4.3 7.0 0.00 0.00 0.00 71 1011.2
20260506174109 64 213 4.3 15.6 0.00 0.00 0.00 71 1011.1
20260506173607 64 149 5.2 11.3 0.00 0.00 0.00 70 1011.1
20260506173103 65 170 3.5 9.6 0.00 0.00 0.00 69 1011.0
20260506172601 65 242 9.6 15.6 0.00 0.00 0.00 69 1011.4
20260506172057 66 187 10.4 18.2 0.00 0.00 0.00 67 1011.6
20260506171555 65 135 10.4 13.9 0.00 0.00 0.00 68 1011.4
20260506171052 67 139 11.3 16.5 0.00 0.00 0.00 66 1011.7
20260506170550 67 357 6.1 14.8 0.00 0.00 0.00 65 1011.1
20260506170047 67 193 9.6 14.8 0.00 0.00 0.00 65 1011.5
20260506165545 66 15 1.7 7.0 0.00 0.00 0.00 68 1011.5
20260506165041 66 165 15.6 20.0 0.00 0.00 0.00 67 1011.4
20260506164538 66 164 3.5 7.8 0.00 0.00 0.00 67 1011.4
20260506164036 66 172 6.1 16.5 0.00 0.00 0.00 67 1011.5
20260506163532 66 188 2.6 18.2 0.00 0.00 0.00 68 1011.5
20260506163027 66 145 3.5 8.7 0.00 0.00 0.00 68 1011.7
20260506162524 66 171 3.5 8.7 0.00 0.00 0.00 67 1011.7
20260506162021 66 108 2.6 13.9 0.00 0.00 0.00 67 1011.8
20260506161518 67 199 15.6 20.9 0.00 0.00 0.00 65 1011.9
20260506161010 67 140 6.1 13.9 0.00 0.00 0.00 65 1012.0
20260506160508 68 189 7.8 12.2 0.00 0.00 0.00 64 1012.1
20260506160005 67 16 1.7 8.7 0.00 0.00 0.00 64 1011.8
20260506155503 68 116 6.1 11.3 0.00 0.00 0.00 64 1012.0
20260506153634 68 152 8.7 13.9 0.00 0.00 0.00 64 1012.3
20260506153131 68 148 4.3 9.6 0.00 0.00 0.00 64 1012.2
20260506152628 68 148 7.8 9.6 0.00 0.00 0.00 64 1012.2
20260506152126 67 189 6.1 18.2 0.00 0.00 0.00 64 1012.4
20260506151624 68 150 2.6 12.2 0.00 0.00 0.00 64 1012.4
20260506151121 68 118 5.2 13.0 0.00 0.00 0.00 64 1012.6
20260506150618 68 169 4.3 8.7 0.00 0.00 0.00 64 1012.3
20260506150115 68 135 3.5 7.0 0.00 0.00 0.00 63 1012.4
20260506145612 68 142 8.7 9.6 0.00 0.00 0.00 65 1012.2
20260506145108 67 204 3.5 11.3 0.00 0.00 0.00 66 1012.4
20260506144605 66 147 7.8 9.6 0.00 0.00 0.00 67 1012.4
20260506144102 66 194 3.5 8.7 0.00 0.00 0.00 68 1012.8
20260506143600 65 311 3.5 7.0 0.00 0.00 0.00 68 1012.6
20260506143058 65 169 7.8 13.9 0.00 0.00 0.00 68 1012.6
20260506142555 65 172 4.3 7.0 0.00 0.00 0.00 69 1012.5
20260506142054 65 169 5.2 8.7 0.00 0.00 0.00 69 1012.5
20260506141551 65 152 8.7 11.3 0.00 0.00 0.00 69 1012.4
20260506141049 65 177 4.3 13.0 0.00 0.00 0.00 69 1012.4
20260506140546 65 240 7.8 12.2 0.00 0.00 0.00 70 1012.5
20260506140044 65 97 5.2 13.0 0.00 0.00 0.00 69 1012.5
20260506135540 64 190 5.2 8.7 0.00 0.00 0.00 69 1012.8
20260506135036 65 225 6.1 14.8 0.00 0.00 0.00 69 1012.4
20260506134533 65 135 7.8 11.3 0.00 0.00 0.00 69 1012.5
20260506134029 65 151 5.2 8.7 0.00 0.00 0.00 68 1012.4
20260506133526 65 311 5.2 7.0 0.00 0.00 0.00 70 1012.5
20260506133023 64 106 4.3 19.1 0.00 0.00 0.00 70 1012.3
20260506132520 64 209 6.1 8.7 0.00 0.00 0.00 71 1012.9
20260506132018 64 161 13.0 19.1 0.00 0.00 0.00 71 1012.8
20260506131515 64 227 6.1 13.9 0.00 0.00 0.00 71 1013.0
20260506131011 64 209 6.1 13.9 0.00 0.00 0.00 72 1012.9
20260506130508 64 128 1.7 7.8 0.00 0.00 0.00 74 1013.0
20260506130006 63 168 5.2 7.8 0.00 0.00 0.00 74 1013.2
20260506125504 62 214 4.3 12.2 0.00 0.00 0.00 76 1012.9
20260506125001 62 156 2.6 8.7 0.00 0.00 0.00 77 1012.9
20260506124459 62 163 2.6 15.6 0.00 0.00 0.00 77 1013.1
20260506123957 62 192 10.4 12.2 0.00 0.00 0.00 77 1013.2
20260506123454 61 33 1.7 11.3 0.00 0.00 0.00 79 1013.1
20260506122952 61 138 3.5 7.8 0.00 0.00 0.00 79 1013.0
20260506122448 61 154 9.6 13.9 0.00 0.00 0.00 79 1013.0
20260506121947 60 266 9.6 13.9 0.00 0.00 0.00 80 1012.8
20260506121443 60 159 10.4 13.9 0.00 0.00 0.00 81 1012.8
20260506120940 60 183 9.6 18.2 0.00 0.00 0.00 80 1012.9
20260506120438 60 127 2.6 9.6 0.00 0.00 0.00 81 1012.9
20260506115935 59 197 8.7 14.8 0.00 0.00 0.00 82 1013.0
20260506115433 60 174 13.0 16.5 0.00 0.00 0.00 82 1012.9
20260506114931 59 151 3.5 5.2 0.00 0.00 0.00 83 1013.3
20260506114428 59 273 7.0 12.2 0.00 0.00 0.00 85 1013.3
20260506113927 58 40 0.9 11.3 0.00 0.00 0.00 86 1013.2
20260506113424 58 183 8.7 11.3 0.00 0.00 0.00 87 1013.4
20260506112920 58 177 3.5 8.7 0.00 0.00 0.00 86 1013.4
20260506112418 58 149 5.2 9.6 0.00 0.00 0.00 86 1013.3
20260506111915 58 271 4.3 9.6 0.00 0.00 0.00 86 1013.1
20260506111413 58 185 7.0 11.3 0.00 0.00 0.00 87 1013.6
20260506110910 58 257 5.2 13.0 0.00 0.00 0.00 87 1013.3
20260506110408 58 142 8.7 12.2 0.00 0.00 0.00 87 1013.3
20260506105904 58 193 1.7 3.5 0.00 0.00 0.00 87 1013.1
20260506105400 57 230 2.6 18.2 0.00 0.00 0.00 88 1012.9
20260506104858 57 354 2.6 8.7 0.00 0.00 0.00 88 1013.2
20260506104356 57 28 1.7 11.3 0.00 0.00 0.00 88 1013.1
20260506103853 57 113 3.5 6.1 0.00 0.00 0.00 88 1013.2
20260506103351 57 175 3.5 8.7 0.00 0.00 0.00 88 1013.3
20260506102848 57 144 4.3 7.0 0.00 0.00 0.00 88 1013.2
20260506102346 57 63 2.6 11.3 0.00 0.00 0.00 88 1013.1
20260506101843 57 37 5.2 12.2 0.00 0.00 0.00 88 1013.2
20260506101338 57 245 5.2 9.6 0.00 0.00 0.00 88 1013.1
20260506100837 57 155 5.2 7.0 0.00 0.00 0.00 88 1013.2
20260506100335 56 73 1.7 5.2 0.00 0.00 0.00 88 1013.2
20260506095833 57 87 1.7 6.1 0.00 0.00 0.00 88 1013.1
20260506095330 57 118 4.3 12.2 0.00 0.00 0.00 88 1013.0
20260506094826 57 142 1.7 9.6 0.00 0.00 0.00 88 1013.0
20260506094325 57 224 3.5 6.1 0.00 0.00 0.00 88 1013.0
20260506093823 56 93 2.6 6.1 0.00 0.00 0.00 87 1013.2
20260506093320 57 158 9.6 11.3 0.00 0.00 0.00 87 1013.0
20260506092818 57 269 7.8 11.3 0.00 0.00 0.00 87 1012.9
20260506092315 57 197 5.2 7.8 0.00 0.00 0.00 87 1013.1
20260506091812 57 65 1.7 7.0 0.00 0.00 0.00 87 1013.1
20260506091310 57 44 1.7 7.8 0.00 0.00 0.00 87 1013.1
20260506090807 57 308 3.5 8.7 0.00 0.00 0.00 87 1013.4
20260506090304 57 158 6.1 13.0 0.00 0.00 0.00 87 1013.2
20260506085801 57 179 6.1 9.6 0.00 0.00 0.00 87 1013.3
20260506085257 57 141 7.8 11.3 0.00 0.00 0.00 86 1013.2
20260506084754 57 154 3.5 7.0 0.00 0.00 0.00 86 1013.3
20260506084250 57 181 6.1 11.3 0.00 0.00 0.00 86 1013.3
20260506083747 57 181 7.0 9.6 0.00 0.00 0.00 86 1013.4
20260506083245 57 169 3.5 11.3 0.00 0.00 0.00 86 1013.4
20260506082742 57 119 5.2 7.8 0.00 0.00 0.00 85 1013.3
20260506082237 57 206 10.4 13.0 0.00 0.00 0.00 85 1013.5
20260506081736 57 192 4.3 11.3 0.00 0.00 0.00 85 1013.3
20260506081233 57 261 6.1 12.2 0.00 0.00 0.00 85 1013.4
20260506080731 57 260 4.3 13.9 0.00 0.00 0.00 84 1013.4
20260506080227 58 130 5.2 7.8 0.00 0.00 0.00 84 1013.5
20260506073211 58 333 1.7 11.3 0.00 0.00 0.00 83 1013.4
20260506072708 58 188 7.8 11.3 0.00 0.00 0.00 83 1013.3
20260506072205 58 153 9.6 12.2 0.00 0.00 0.00 83 1013.3
20260506071702 58 159 5.2 13.9 0.00 0.00 0.00 83 1013.3
20260506071200 58 143 12.2 15.6 0.00 0.00 0.00 82 1013.1
20260506070657 58 327 7.0 13.0 0.00 0.00 0.00 83 1013.3
20260506070154 58 358 4.3 13.0 0.00 0.00 0.00 82 1013.1
20260506062131 59 182 6.1 11.3 0.00 0.00 0.00 80 1013.2
20260506061627 59 192 7.0 16.5 0.00 0.00 0.00 80 1013.1
20260506061125 59 46 12.2 18.2 0.00 0.00 0.00 80 1013.2
20260506060623 59 182 5.2 7.8 0.00 0.00 0.00 79 1013.2
20260506060120 59 139 9.6 13.0 0.00 0.00 0.00 79 1013.4
20260506051052 60 197 7.8 13.0 0.00 0.00 0.00 75 1013.6
20260506050550 60 171 7.0 13.9 0.00 0.00 0.00 74 1013.4
20260506045040 60 151 14.8 23.5 0.00 0.00 0.00 73 1013.7
20260506044538 60 145 6.1 8.7 0.00 0.00 0.00 73 1013.7
20260506044035 61 301 3.5 8.7 0.00 0.00 0.00 72 1013.7
20260506043532 61 284 4.3 9.6 0.00 0.00 0.00 72 1013.8
20260506043030 61 150 7.8 11.3 0.00 0.00 0.00 71 1013.9
20260506042529 61 169 6.1 22.6 0.00 0.00 0.00 71 1013.9
20260506042027 61 225 6.1 7.8 0.00 0.00 0.00 71 1013.6
20260506041525 61 179 8.7 14.8 0.00 0.00 0.00 71 1013.8
20260506041021 61 248 4.3 9.6 0.00 0.00 0.00 70 1013.6
20260506040519 61 290 8.7 13.9 0.00 0.00 0.00 70 1013.5
20260506040015 61 179 5.2 18.2 0.00 0.00 0.00 70 1013.6
20260506035512 61 171 7.8 11.3 0.00 0.00 0.00 69 1013.9
20260506035008 61 208 6.1 8.7 0.00 0.00 0.00 69 1013.9
20260506034506 61 124 9.6 13.0 0.00 0.00 0.00 68 1013.8
20260506034003 61 120 6.1 13.0 0.00 0.00 0.00 68 1013.4
20260506033500 61 162 7.0 13.0 0.00 0.00 0.00 68 1013.5
20260506032957 61 71 7.8 13.0 0.00 0.00 0.00 68 1013.5
20260506032455 61 208 6.1 9.6 0.00 0.00 0.00 68 1013.8
20260506031950 61 262 9.6 16.5 0.00 0.00 0.00 68 1013.4
20260506031448 61 197 7.8 12.2 0.00 0.00 0.00 68 1013.3
20260506030946 61 231 13.0 16.5 0.00 0.00 0.00 68 1013.5
20260506030444 61 234 5.2 13.0 0.00 0.00 0.00 68 1013.4
20260506025940 61 174 6.1 15.6 0.00 0.00 0.00 68 1013.6
20260506025437 61 344 5.2 11.3 0.00 0.00 0.00 68 1013.4
20260506024934 61 345 3.5 14.8 0.00 0.00 0.00 68 1013.4
20260506024431 61 255 10.4 13.0 0.00 0.00 0.00 68 1013.4
20260506023926 61 186 4.3 7.8 0.00 0.00 0.00 68 1013.6
20260506023424 61 175 5.2 12.2 0.00 0.00 0.00 68 1013.4
20260506022920 60 34 4.3 8.7 0.00 0.00 0.00 68 1013.6
20260506022418 60 194 6.1 8.7 0.00 0.00 0.00 69 1013.4
20260506021916 60 12 1.7 16.5 0.00 0.00 0.00 69 1013.5
20260506021413 60 284 9.6 13.0 0.00 0.00 0.00 69 1013.2